Weather History for K05U - March, 2013

Change the Weather History Date:

Sunday, March 17, 2013

  Actual Average Record
Temperature  
Mean Temperature 42 °F -  
Max Temperature 53 °F - - ()
Min Temperature 28 °F - - ()
Degree Days  
Heating Degree Days 22    
Moisture  
Dew Point 13 °F    
Average Humidity 31    
Maximum Humidity 60    
Minimum Humidity 15    
Precipitation  
Precipitation 0.00 in - - ()
Sea Level Pressure  
Sea Level Pressure 30.01 in    
Wind  
Wind Speed 10 mph (WNW)    
Max Wind Speed 22 mph    
Max Gust Speed 38 mph    
Visibility 10 miles    
Events      
T = Trace of Precipitation, MM = Missing Value Source: NWS Daily Summary

Daily Weather History Graph

Daily Weather History Graph

Search for Another Location

Airport or City:

Trip Planner

Search our weather history database for the weather conditions in past years. The results will help you decide how hot, cold, wet, or windy it might be!

Date:

Astronomy

Mar. 17, 2013 Rise Set
Actual Time 6:51 AM PDT 6:53 PM PDT
Civil Twilight 6:24 AM PDT 7:20 PM PDT
Nautical Twilight 5:53 AM PDT 7:51 PM PDT
Astronomical Twilight 5:21 AM PDT 8:23 PM PDT
Moon 10:08 AM PDT (3/17) 12:04 AM PDT (3/17)
Length of Visible Light 12h 55m
Length of Day
12h 01m
Waxing Crescent, 32% of the Moon is Illuminated
Mar 17
Waxing Crescent
Mar 19
First Quarter
Mar 27
Full
Apr 2
Last Quarter
Apr 10
New

Hourly Weather History & Observations

Time (PDT) Temp. Windchill Dew Point Humidity Pressure Visibility Wind Dir Wind Speed Gust Speed Precip Events Conditions
12:15 AM 42.8 °F 39.3 °F 23.0 °F 46% 29.97 in 10.0 mi NNW 5.8 mph - N/A   Clear
12:35 AM 41.0 °F 39.0 °F 23.0 °F 49% 29.97 in 10.0 mi ENE 3.5 mph - N/A   Partly Cloudy
12:55 AM 39.2 °F 37.0 °F 23.0 °F 52% 29.98 in 10.0 mi NE 3.5 mph - N/A   Clear
1:15 AM 39.2 °F 37.0 °F 23.0 °F 52% 29.98 in 10.0 mi East 3.5 mph - N/A   Clear
1:55 AM 44.6 °F 37.8 °F 21.2 °F 39% 29.98 in 10.0 mi NW 15.0 mph 24.2 mph N/A   Clear
2:15 AM 44.6 °F 37.2 °F 21.2 °F 39% 29.99 in 10.0 mi WNW 17.3 mph 28.8 mph N/A   Clear
2:35 AM 42.8 °F 35.1 °F 21.2 °F 42% 29.99 in 10.0 mi WNW 16.1 mph 26.5 mph N/A   Clear
2:55 AM 42.8 °F 34.8 °F 21.2 °F 42% 29.99 in 10.0 mi WNW 17.3 mph 24.2 mph N/A   Clear
3:15 AM 41.0 °F 33.5 °F 23.0 °F 49% 29.98 in 10.0 mi WNW 13.8 mph 24.2 mph N/A   Clear
3:35 AM 41.0 °F 34.7 °F 21.2 °F 45% 29.99 in 10.0 mi West 10.4 mph - N/A   Clear
3:55 AM 41.0 °F 36.4 °F 21.2 °F 45% 29.99 in 10.0 mi West 6.9 mph - N/A   Clear
4:15 AM 39.2 °F 33.6 °F 19.4 °F 45% 30.00 in 10.0 mi WSW 8.1 mph - N/A   Clear
4:35 AM 39.2 °F 32.5 °F 19.4 °F 45% 30.00 in 10.0 mi West 10.4 mph - N/A   Clear
4:55 AM 37.4 °F 33.8 °F 19.4 °F 48% 29.99 in 10.0 mi SW 4.6 mph - N/A   Clear
5:15 AM 37.4 °F 30.8 °F 19.4 °F 48% 30.00 in 10.0 mi West 9.2 mph - N/A   Clear
5:35 AM 35.6 °F 28.6 °F 19.4 °F 52% 30.00 in 10.0 mi WSW 9.2 mph - N/A   Clear
5:55 AM 35.6 °F 30.7 °F 19.4 °F 52% 30.01 in 10.0 mi WSW 5.8 mph - N/A   Clear
6:15 AM 37.4 °F 30.3 °F 17.6 °F 45% 30.01 in 10.0 mi WSW 10.4 mph 20.7 mph N/A   Clear
6:35 AM 37.4 °F 31.4 °F 17.6 °F 45% 30.01 in 10.0 mi WSW 8.1 mph - N/A   Clear
6:55 AM 32.0 °F - 19.4 °F 60% 30.01 in 10.0 mi Calm Calm - N/A   Clear
7:15 AM 32.0 °F - 19.4 °F 60% 30.01 in 10.0 mi Calm Calm - N/A   Clear
7:35 AM 32.0 °F - 19.4 °F 60% 30.01 in 10.0 mi Calm Calm - N/A   Clear
7:55 AM 35.6 °F 29.2 °F 19.4 °F 52% 30.02 in 10.0 mi WSW 8.1 mph - N/A   Clear
8:15 AM 41.0 °F 34.3 °F 19.4 °F 42% 30.01 in 10.0 mi WSW 11.5 mph - N/A   Clear
8:35 AM 42.8 °F 35.8 °F 19.4 °F 39% 30.03 in 10.0 mi WSW 13.8 mph 20.7 mph N/A   Clear
8:55 AM 44.6 °F 37.2 °F 17.6 °F 34% 30.02 in 10.0 mi WSW 17.3 mph 25.3 mph N/A   Clear
9:15 AM 46.4 °F 39.8 °F 15.8 °F 29% 30.03 in 10.0 mi West 16.1 mph 23.0 mph N/A   Clear
9:55 AM 48.2 °F - 12.2 °F 24% 30.02 in 10.0 mi West 18.4 mph 29.9 mph N/A   Clear
10:15 AM 48.2 °F - 14.0 °F 25% 30.03 in 10.0 mi WNW 16.1 mph 24.2 mph N/A   Clear
10:55 AM 48.2 °F - 10.4 °F 22% 30.03 in 10.0 mi WNW 19.6 mph 25.3 mph N/A   Clear
11:15 AM 50.0 °F - 10.4 °F 20% 30.03 in 10.0 mi West 17.3 mph 28.8 mph N/A   Clear
11:35 AM 50.0 °F - 10.4 °F 20% 30.03 in 10.0 mi West 18.4 mph 26.5 mph N/A   Clear
11:55 AM 50.0 °F - 10.4 °F 20% 30.03 in 10.0 mi West 15.0 mph 24.2 mph N/A   Clear
12:15 PM 50.0 °F - 10.4 °F 20% 30.03 in 10.0 mi WNW 12.7 mph 21.9 mph N/A   Clear
12:35 PM 51.8 °F - 8.6 °F 18% 30.03 in 10.0 mi NW 13.8 mph 26.5 mph N/A   Clear
12:55 PM 53.6 °F - 8.6 °F 16% 30.03 in 10.0 mi NW 21.9 mph 29.9 mph N/A   Clear
1:15 PM 53.6 °F - 6.8 °F 15% 30.02 in 10.0 mi NW 18.4 mph 31.1 mph N/A   Clear
1:35 PM 53.6 °F - 6.8 °F 15% 30.02 in 10.0 mi NW 19.6 mph 38.0 mph N/A   Clear
1:55 PM 53.6 °F - 8.6 °F 16% 30.01 in 10.0 mi NW 21.9 mph 35.7 mph N/A   Clear
2:15 PM 53.6 °F - 10.4 °F 18% 30.01 in 10.0 mi NW 18.4 mph 27.6 mph N/A   Clear
2:35 PM 53.6 °F - 8.6 °F 16% 30.00 in 10.0 mi NW 18.4 mph 23.0 mph N/A   Clear
2:55 PM 53.6 °F - 6.8 °F 15% 30.00 in 10.0 mi NW 16.1 mph 29.9 mph N/A   Clear
3:15 PM 53.6 °F - 8.6 °F 16% 29.99 in 10.0 mi NW 15.0 mph 27.6 mph N/A   Clear
3:35 PM 53.6 °F - 6.8 °F 15% 29.99 in 10.0 mi WNW 17.3 mph 27.6 mph N/A   Clear
3:55 PM 53.6 °F - 8.6 °F 16% 29.99 in 10.0 mi WNW 18.4 mph 31.1 mph N/A   Clear
4:15 PM 53.6 °F - 8.6 °F 16% 29.99 in 10.0 mi WNW 15.0 mph 28.8 mph N/A   Clear
4:35 PM 53.6 °F - 6.8 °F 15% 30.00 in 10.0 mi WNW 16.1 mph 24.2 mph N/A   Clear
4:55 PM 53.6 °F - 6.8 °F 15% 30.00 in 10.0 mi WNW 16.1 mph 29.9 mph N/A   Clear
5:15 PM 51.8 °F - 5.0 °F 15% 30.01 in 10.0 mi WNW 13.8 mph 23.0 mph N/A   Clear
5:35 PM 50.0 °F - 5.0 °F 16% 30.01 in 10.0 mi West 17.3 mph 25.3 mph N/A   Clear
5:55 PM 50.0 °F - 5.0 °F 16% 30.01 in 10.0 mi WNW 11.5 mph 23.0 mph N/A   Clear
6:15 PM 50.0 °F - 5.0 °F 16% 30.01 in 10.0 mi WNW 8.1 mph 19.6 mph N/A   Clear
6:35 PM 48.2 °F - 5.0 °F 17% 30.02 in 10.0 mi WNW 16.1 mph 24.2 mph N/A   Clear
6:55 PM 46.4 °F 40.7 °F 5.0 °F 18% 30.02 in 10.0 mi WNW 12.7 mph 19.6 mph N/A   Clear
7:15 PM 44.6 °F 38.4 °F 3.2 °F 18% 30.03 in 10.0 mi WNW 12.7 mph 19.6 mph N/A   Clear
7:35 PM 44.6 °F 39.7 °F 5.0 °F 20% 30.03 in 10.0 mi NW 9.2 mph 18.4 mph N/A   Clear
7:55 PM 44.6 °F 40.7 °F 5.0 °F 20% 30.04 in 10.0 mi WNW 6.9 mph - N/A   Clear
8:15 PM 42.8 °F 38.0 °F 5.0 °F 21% 30.04 in 10.0 mi WNW 8.1 mph - N/A   Clear
8:35 PM 41.0 °F 38.0 °F 5.0 °F 23% 30.05 in 10.0 mi WNW 4.6 mph - N/A   Clear
8:55 PM 39.2 °F - 6.8 °F 26% 30.05 in 10.0 mi Calm Calm - N/A   Clear
9:15 PM 35.6 °F 29.9 °F 8.6 °F 33% 30.06 in 10.0 mi South 6.9 mph - N/A   Clear
9:35 PM 32.0 °F - 8.6 °F 38% 30.06 in 10.0 mi Calm Calm - N/A   Clear
9:55 PM 33.8 °F - 8.6 °F 35% 30.05 in 10.0 mi Calm Calm - N/A   Clear
10:15 PM 33.8 °F - 6.8 °F 32% 30.06 in 10.0 mi Calm Calm - N/A   Clear
10:55 PM 35.6 °F 29.2 °F 6.8 °F 30% 30.06 in 10.0 mi South 8.1 mph - N/A   Clear
11:15 PM 32.0 °F 26.4 °F 8.6 °F 38% 30.06 in 10.0 mi South 5.8 mph - N/A   Clear
11:55 PM 28.4 °F 23.3 °F 10.4 °F 47% 30.07 in 10.0 mi South 4.6 mph - N/A   Clear